| time (UTC) | temp F | wind direction | speed knots | gust knots | rain 1hr in | rain 24hr in | rain mn in | humidity % | barometer mb |
| 20260906220104 | 76 | 194 | 5.2 | 17.4 | 0.00 | 0.00 | 0.00 | 31 | 1028.0 |
| 20260906214558 | 76 | 172 | 3.5 | 16.5 | 0.00 | 0.00 | 0.00 | 30 | 1028.3 |
| 20260906213057 | 76 | 179 | 4.3 | 17.4 | 0.00 | 0.00 | 0.00 | 30 | 1028.6 |
| 20260906211554 | 76 | 157 | 9.6 | 16.5 | 0.00 | 0.00 | 0.00 | 27 | 1028.5 |
| 20260906210106 | 76 | 153 | 9.6 | 18.2 | 0.00 | 0.00 | 0.00 | 28 | 1028.6 |
| 20260906204602 | 75 | 160 | 7.8 | 15.6 | 0.00 | 0.00 | 0.00 | 28 | 1028.8 |
| 20260906203059 | 75 | 169 | 4.3 | 18.2 | 0.00 | 0.00 | 0.00 | 29 | 1028.8 |
| 20260906201552 | 74 | 151 | 7.8 | 17.4 | 0.00 | 0.00 | 0.00 | 31 | 1028.8 |
| 20260906194556 | 75 | 237 | 5.2 | 12.2 | 0.00 | 0.00 | 0.00 | 30 | 1029.1 |
| 20260906193101 | 75 | 169 | 7.0 | 18.2 | 0.00 | 0.00 | 0.00 | 29 | 1029.4 |
| 20260906191552 | 74 | 163 | 6.1 | 13.9 | 0.00 | 0.00 | 0.00 | 30 | 1029.6 |
| 20260906190058 | 74 | 194 | 4.3 | 11.3 | 0.00 | 0.00 | 0.00 | 30 | 1029.5 |
| 20260906184606 | 73 | 0 | 4.3 | 15.6 | 0.00 | 0.00 | 0.00 | 30 | 1029.8 |
| 20260906183054 | 73 | 219 | 2.6 | 9.6 | 0.00 | 0.00 | 0.00 | 34 | 1030.0 |
| 20260906181602 | 72 | 40 | 3.5 | 13.0 | 0.00 | 0.00 | 0.00 | 35 | 1030.2 |
| 20260906180105 | 72 | 180 | 6.1 | 11.3 | 0.00 | 0.00 | 0.00 | 36 | 1030.4 |
| 20260906174551 | 72 | 189 | 5.2 | 8.7 | 0.00 | 0.00 | 0.00 | 36 | 1030.6 |
| 20260906173105 | 71 | 182 | 5.2 | 9.6 | 0.00 | 0.00 | 0.00 | 37 | 1031.0 |
| 20260906171603 | 71 | 196 | 3.5 | 8.7 | 0.00 | 0.00 | 0.00 | 37 | 1031.1 |
| 20260906170120 | 70 | 113 | 4.3 | 10.4 | 0.00 | 0.00 | 0.00 | 38 | 1031.4 |
| 20260906164552 | 69 | 227 | 4.3 | 10.4 | 0.00 | 0.00 | 0.00 | 39 | 1031.3 |
| 20260906163115 | 69 | 164 | 3.5 | 8.7 | 0.00 | 0.00 | 0.00 | 42 | 1031.2 |
| 20260906161558 | 68 | 184 | 2.6 | 7.0 | 0.00 | 0.00 | 0.00 | 43 | 1031.2 |
| 20260906160059 | 68 | 98 | 3.5 | 8.7 | 0.00 | 0.00 | 0.00 | 43 | 1031.1 |
| 20260906154553 | 68 | 299 | 1.7 | 6.1 | 0.00 | 0.00 | 0.00 | 42 | 1030.9 |
| 20260906153059 | 67 | 278 | 0.9 | 4.3 | 0.00 | 0.00 | 0.00 | 45 | 1030.9 |
| 20260906151600 | 66 | 156 | 2.6 | 6.1 | 0.00 | 0.00 | 0.00 | 49 | 1031.0 |
| 20260906150106 | 66 | 190 | 2.6 | 4.3 | 0.00 | 0.00 | 0.00 | 50 | 1030.9 |
| 20260906144551 | 65 | 166 | 0.9 | 3.5 | 0.00 | 0.00 | 0.00 | 52 | 1030.7 |
| 20260906143059 | 65 | 0 | 0.0 | 0.0 | 0.00 | 0.00 | 0.00 | 53 | 1030.7 |
| 20260906141553 | 64 | 0 | 0.0 | 1.7 | 0.00 | 0.00 | 0.00 | 56 | 1030.7 |
| 20260906140059 | 61 | 0 | 0.0 | 4.3 | 0.00 | 0.00 | 0.00 | 61 | 1030.6 |
| 20260906134558 | 58 | 34 | 3.5 | 5.2 | 0.00 | 0.00 | 0.00 | 62 | 1030.6 |
| 20260906133117 | 56 | 0 | 0.0 | 0.9 | 0.00 | 0.00 | 0.00 | 66 | 1030.4 |
| 20260906131556 | 55 | 0 | 0.0 | 0.9 | 0.00 | 0.00 | 0.00 | 64 | 1030.3 |
| 20260906130107 | 57 | 25 | 0.0 | 1.7 | 0.00 | 0.00 | 0.00 | 61 | 1030.2 |
| 20260906124603 | 56 | 0 | 0.0 | 2.6 | 0.00 | 0.00 | 0.00 | 62 | 1030.3 |
| 20260906123054 | 55 | 25 | 0.0 | 2.6 | 0.00 | 0.00 | 0.00 | 64 | 1030.3 |
| 20260906121549 | 52 | 0 | 0.0 | 1.7 | 0.00 | 0.00 | 0.00 | 70 | 1030.3 |
| 20260906120101 | 52 | 0 | 0.0 | 1.7 | 0.00 | 0.00 | 0.00 | 70 | 1030.3 |
| 20260906114555 | 52 | 0 | 0.0 | 1.7 | 0.00 | 0.00 | 0.00 | 70 | 1030.3 |
| 20260906113055 | 52 | 0 | 0.0 | 1.7 | 0.00 | 0.00 | 0.00 | 69 | 1030.6 |
| 20260906111613 | 55 | 25 | 0.0 | 3.5 | 0.00 | 0.00 | 0.00 | 63 | 1030.3 |
| 20260906110059 | 57 | 25 | 1.7 | 5.2 | 0.00 | 0.00 | 0.00 | 62 | 1030.1 |
| 20260906104557 | 57 | 36 | 4.3 | 7.0 | 0.00 | 0.00 | 0.00 | 62 | 1030.1 |
| 20260906103056 | 57 | 33 | 2.6 | 4.3 | 0.00 | 0.00 | 0.00 | 61 | 1030.0 |
| 20260906101553 | 58 | 19 | 2.6 | 4.3 | 0.00 | 0.00 | 0.00 | 60 | 1030.1 |
| 20260906100057 | 58 | 25 | 3.5 | 6.1 | 0.00 | 0.00 | 0.00 | 59 | 1030.1 |
| 20260906094556 | 58 | 21 | 2.6 | 4.3 | 0.00 | 0.00 | 0.00 | 58 | 1030.3 |
| 20260906093103 | 57 | 45 | 2.6 | 6.1 | 0.00 | 0.00 | 0.00 | 59 | 1030.4 |
| 20260906091558 | 58 | 15 | 3.5 | 6.1 | 0.00 | 0.00 | 0.00 | 57 | 1030.3 |
| 20260906084602 | 58 | 31 | 3.5 | 5.2 | 0.00 | 0.00 | 0.00 | 59 | 1030.1 |
| 20260906083100 | 57 | 38 | 2.6 | 5.2 | 0.00 | 0.00 | 0.00 | 60 | 1030.2 |
| 20260906081558 | 58 | 22 | 3.5 | 5.2 | 0.00 | 0.00 | 0.00 | 59 | 1030.3 |
| 20260906074554 | 59 | 17 | 4.3 | 7.8 | 0.00 | 0.00 | 0.00 | 56 | 1030.3 |
| 20260906073057 | 59 | 360 | 6.1 | 8.7 | 0.00 | 0.00 | 0.00 | 56 | 1030.3 |
| 20260906071554 | 60 | 62 | 2.6 | 4.3 | 0.00 | 0.00 | 0.00 | 54 | 1030.3 |
| 20260906070044 | 60 | 5 | 1.7 | 3.5 | 0.00 | 0.00 | 0.00 | 54 | 1030.3 |
| 20260906064554 | 61 | 19 | 2.6 | 6.1 | 0.00 | 0.00 | 0.00 | 53 | 1030.3 |
| 20260906063054 | 61 | 107 | 3.5 | 5.2 | 0.00 | 0.00 | 0.00 | 53 | 1030.3 |
| 20260906061558 | 60 | 26 | 3.5 | 5.2 | 0.00 | 0.00 | 0.00 | 54 | 1030.3 |
| 20260906060052 | 60 | 56 | 4.3 | 7.8 | 0.00 | 0.00 | 0.00 | 54 | 1030.4 |
| 20260906054601 | 62 | 24 | 4.3 | 7.0 | 0.00 | 0.00 | 0.00 | 52 | 1030.5 |
| 20260906053100 | 62 | 0 | 0.0 | 5.2 | 0.00 | 0.00 | 0.00 | 50 | 1030.4 |
| 20260906051610 | 64 | 91 | 1.7 | 6.1 | 0.00 | 0.00 | 0.00 | 48 | 1030.4 |
| 20260906050053 | 64 | 117 | 1.7 | 7.0 | 0.00 | 0.00 | 0.00 | 48 | 1030.5 |
| 20260906044607 | 63 | 95 | 4.3 | 9.6 | 0.00 | 0.00 | 0.00 | 49 | 1030.5 |
| 20260906043053 | 63 | 0 | 0.0 | 2.6 | 0.00 | 0.00 | 0.00 | 50 | 1030.5 |
| 20260906041601 | 63 | 0 | 0.0 | 7.8 | 0.00 | 0.00 | 0.00 | 49 | 1030.6 |
| 20260906040137 | 65 | 0 | 1.7 | 6.1 | 0.00 | 0.00 | 0.00 | 47 | 1030.6 |
| 20260906034605 | 65 | 111 | 4.3 | 6.1 | 0.00 | 0.00 | 0.00 | 46 | 1030.7 |
| 20260906033108 | 65 | 135 | 3.5 | 9.6 | 0.00 | 0.00 | 0.00 | 46 | 1030.7 |
| 20260906031556 | 66 | 103 | 6.1 | 11.3 | 0.00 | 0.00 | 0.00 | 45 | 1030.6 |
| 20260906030100 | 66 | 141 | 2.6 | 11.3 | 0.00 | 0.00 | 0.00 | 45 | 1030.4 |
| 20260906024614 | 65 | 124 | 0.9 | 5.2 | 0.00 | 0.00 | 0.00 | 47 | 1030.3 |
| 20260906023102 | 66 | 101 | 1.7 | 7.0 | 0.00 | 0.00 | 0.00 | 45 | 1030.1 |
| 20260906021558 | 66 | 68 | 1.7 | 7.0 | 0.00 | 0.00 | 0.00 | 45 | 1029.8 |
| 20260906014551 | 66 | 121 | 3.5 | 9.6 | 0.00 | 0.00 | 0.00 | 45 | 1029.4 |
| 20260906013102 | 67 | 84 | 3.5 | 9.6 | 0.00 | 0.00 | 0.00 | 45 | 1029.5 |
| 20260906011555 | 67 | 98 | 4.3 | 8.7 | 0.00 | 0.00 | 0.00 | 45 | 1029.4 |
| 20260906010055 | 67 | 74 | 4.3 | 8.7 | 0.00 | 0.00 | 0.00 | 45 | 1029.4 |
| 20260906004600 | 68 | 98 | 4.3 | 7.8 | 0.00 | 0.00 | 0.00 | 45 | 1029.5 |
| 20260906003059 | 69 | 95 | 7.8 | 13.0 | 0.00 | 0.00 | 0.00 | 43 | 1029.3 |
| 20260906001559 | 70 | 86 | 6.1 | 13.0 | 0.00 | 0.00 | 0.00 | 42 | 1029.3 |
| 20260906000057 | 71 | 90 | 4.3 | 13.0 | 0.00 | 0.00 | 0.00 | 40 | 1029.1 |
| 20260905234601 | 72 | 78 | 4.3 | 8.7 | 0.00 | 0.00 | 0.00 | 40 | 1029.2 |
| 20260905233101 | 71 | 88 | 5.2 | 13.0 | 0.00 | 0.00 | 0.00 | 39 | 1029.2 |
| 20260905231554 | 73 | 90 | 6.1 | 14.8 | 0.00 | 0.00 | 0.00 | 38 | 1029.0 |
| 20260905230105 | 73 | 113 | 6.1 | 15.6 | 0.00 | 0.00 | 0.00 | 35 | 1029.1 |
| 20260905224614 | 72 | 173 | 7.0 | 15.6 | 0.00 | 0.00 | 0.00 | 39 | 1029.1 |
| 20260905223106 | 73 | 173 | 3.5 | 20.0 | 0.00 | 0.00 | 0.00 | 36 | 1029.0 |
| 20260905221550 | 74 | 211 | 1.7 | 7.0 | 0.00 | 0.00 | 0.00 | 30 | 1028.9 |